Location: Kitchener
(43.4500°N, 80.5000°W)
Time: 17:59:54
(UTC-04:00)

Daily predictions for brighter satellites

Satellite Brightness Start Highest point End
(mag) Time Altitude Azimuth Time Altitude Azimuth Time Altitude Azimuth
ARGOS 4.4 21:34:16 10° ESE 21:38:39 26° ENE 21:43:03 10° N
BREEZE-M DEB (TANK) 4.2 21:39:21 10° WNW 21:41:19 20° N 21:42:58 10° NE
Cosmos 2292 4.3 21:40:10 10° N 21:43:12 56° E 21:46:13 10° SSE
Cosmos 405 4.2 21:43:06 10° NNE 21:46:19 29° ENE 21:49:30 10° SE
ERS-1 Rocket 3.4 21:41:57 10° S 21:46:57 66° WSW 21:51:59 10° NNW
Cosmos 1441 Rocket 3.3 21:44:57 10° S 21:48:39 52° E 21:52:20 10° NNE
Cosmos 1777 Rocket 4.4 21:44:45 10° S 21:49:43 43° ESE 21:54:41 10° NNE
Cosmos 2322 Rocket 2.3 21:48:34 10° NNW 21:54:11 77° WSW 21:59:47 10° SSE
Cosmos 1939 Rocket 3.0 21:51:03 10° S 21:55:00 73° WSW 21:58:57 10° NNW
H-2A R/B 3.8 21:52:04 10° ESE 21:55:47 20° ENE 21:59:34 10° NNE
SPOT 5 2.7 21:57:56 10° SSE 22:02:25 81° ENE 22:07:11 10° NNW
SL-16 R/B 2.5 21:57:04 10° NNW 22:02:44 71° WSW 22:08:21 10° SSE
Cosmos 371 Rocket 3.8 21:59:37 10° NNW 22:04:22 58° WSW 22:09:04 10° S
Meteor 2-2 Rocket 4.4 21:58:38 10° N 22:04:38 78° E 22:10:40 10° SSE
Cosmos 1980 Rocket 4.1 22:00:13 10° NW 22:04:47 25° WSW 22:09:21 10° SSW
Cosmos 1908 3.4 22:01:07 10° N 22:04:58 60° E 22:08:45 10° SSE
Cosmos 1437 4.0 22:02:32 11° SSE 22:05:01 25° E 22:07:46 10° NE
CZ-2C R/B 2.8 22:04:01 10° SW 22:05:14 15° W 22:06:27 10° NW
Cosmos 1726 4.2 22:03:06 10° NE 22:05:15 14° ENE 22:07:23 10° ESE
Cosmos 2360 Rocket 2.6 22:00:15 10° NNW 22:05:45 51° ENE 22:10:47 12° SE
Cosmos 2151 3.6 22:02:07 10° SSE 22:05:57 36° E 22:09:48 10° NNE
SPOT 1/Viking Rocket 3.9 22:02:26 10° SE 22:07:20 51° ENE 22:12:19 10° N
Cosmos 1151 Rocket 3.1 22:04:05 10° N 22:08:21 59° E 22:12:25 11° SSE
Cosmos 1680 Rocket 3.9 22:10:24 10° NNW 22:15:32 52° ENE 22:19:50 14° SE
OE (NEXTSAT) 4.4 22:13:47 10° WNW 22:17:21 71° SSW 22:20:08 16° ESE
Cosmos 923 Rocket 4.0 22:13:11 10° NNW 22:18:25 71° ENE 22:22:50 14° SSE
H-2A R/B 3.5 22:15:58 10° SSW 22:20:10 38° W 22:24:25 10° NNW
Cosmos 1437 Rocket 3.1 22:20:44 10° NNW 22:24:30 62° W 22:28:14 10° S
Cosmos 1674 2.8 22:27:07 10° S 22:30:55 80° W 22:34:48 10° N
Cosmos 1833 4.2 22:26:00 10° SSW 22:31:42 73° ESE 22:37:22 10° NNE
Cosmos 2333 Rocket 4.1 22:28:17 10° N 22:32:24 20° NE 22:36:30 10° E
MetOp-B 4.4 22:27:27 10° S 22:32:46 69° WSW 22:38:08 10° NNW
CZ-4B R/B 3.5 22:28:43 10° NNE 22:34:03 79° ESE 22:39:15 10° S
CZ-4C R/B 3.7 22:34:28 21° SE 22:36:24 41° ENE 22:39:42 10° N
Cosmos 1300 3.3 22:33:31 10° N 22:37:12 42° ENE 22:39:16 22° SE
SL-08 RB Rocket 3.7 22:36:33 18° SSE 22:39:45 69° ENE 22:44:14 10° N
Cosmos 2058 3.0 22:39:47 18° SSE 22:42:38 56° E 22:46:40 10° NNE
Cosmos 1328 3.7 22:40:37 13° S 22:44:02 83° E 22:48:00 10° N
COSMOS 2428 3.1 22:39:02 10° NNW 22:44:35 51° ENE 22:48:24 20° SE
Meteor 1-4 Rocket 3.9 22:43:47 10° NNE 22:47:05 27° ENE 22:48:33 21° ESE
USA 229 DEB 3.9 22:42:09 10° SW 22:49:06 80° NW 22:56:09 10° NE
USA 229 3.9 22:42:15 10° SW 22:49:11 80° NW 22:56:15 10° NE
Cosmos 2242 Rocket 4.3 22:47:39 10° N 22:51:51 39° ENE 22:54:01 24° SE
Cosmos 304 Rocket 3.9 22:47:04 10° NNW 22:51:54 72° WSW 22:55:07 21° S
DELTA 2 DEB (DPAF) 4.2 22:49:23 22° SSE 22:52:13 73° ENE 22:56:42 10° N
SL-23 DEB 3.7 22:48:34 10° WNW 22:53:27 83° SSW 22:55:10 28° SE
Landsat 7 3.8 22:51:46 22° SSE 22:54:45 71° ENE 22:59:31 10° N
USA 32 4.4 22:50:23 10° N 22:55:29 49° E 22:58:24 24° SE
Cosmos 2297 Rocket 4.1 22:59:14 11° E 22:59:38 11° E 23:01:26 10° ENE
Spot 4 4.4 22:57:34 23° SE 23:00:10 45° ENE 23:04:47 10° N
Cosmos 1455 3.9 22:57:28 10° NNE 23:00:14 19° ENE 23:01:18 17° E
AVUM R/B 4.1 22:58:46 10° SW 23:00:56 35° WNW 23:03:18 10° N
IGS 5A 3.8 23:00:13 27° SE 23:02:09 50° ENE 23:06:12 10° N
SeaSat 1 3.9 23:01:34 14° E 23:04:51 27° NE 23:08:59 10° N
USA 245 4.2 23:04:47 17° SW 23:06:10 24° W 23:08:19 10° NW
Cosmos 2237 4.2 23:00:35 10° NNW 23:06:22 79° ENE 23:09:42 26° SSE
NOSS 3-1 (A) 3.8 23:05:11 20° S 23:08:49 41° ESE 23:14:49 10° NE
Cosmos 2315 Rocket 4.3 23:03:03 10° NNW 23:09:12 64° W 23:14:08 16° S
Cosmos 2219 Rocket 2.9 23:04:10 10° NNW 23:09:28 41° ENE 23:12:41 21° ESE
Terra 1.8 23:08:07 28° SSE 23:10:37 72° ENE 23:15:23 10° N
DELTA 2 R/B (1) 3.9 23:07:49 10° W 23:13:07 46° SSW 23:15:33 28° SE
Cosmos 292 Rocket 4.2 23:09:51 10° N 23:14:29 48° ENE 23:16:37 28° SE
CZ-4 R/B 4.4 23:09:56 10° N 23:14:51 60° WNW 23:19:38 10° SSW
SL-14 R/B 3.2 23:13:39 28° S 23:15:39 90° ENE 23:19:39 10° N
Meteor 1-27 4.3 23:10:37 10° NNW 23:16:20 76° W 23:19:54 23° S
Cosmos 1703 3.5 23:16:03 37° SE 23:17:09 50° E 23:20:56 10° NNE
Cosmos 1862 Rocket 4.5 23:14:31 10° N 23:18:32 34° ENE 23:19:53 27° ESE
ARGOS 3.9 23:14:35 16° SSW 23:18:38 46° W 23:23:49 10° NNW
Cosmos 2298 Rocket 4.0 23:15:36 21° S 23:19:08 69° ESE 23:24:27 10° NNE
CARTOSAT-1 3.5 23:20:21 33° S 23:22:17 82° WSW 23:26:38 10° NNW
Cosmos 2219 3.3 23:17:42 10° SSW 23:23:27 81° WNW 23:29:15 10° NNE
Cosmos 1271 Rocket 2.6 23:21:33 10° N 23:25:22 76° E 23:26:28 45° SSE
Cosmos 2333 4.2 23:22:40 10° NNW 23:28:25 88° ENE 23:31:14 32° SSE
Cosmos 1633 Rocket 3.1 23:26:22 27° SSW 23:28:44 78° W 23:33:09 10° N
Sich 1 3.2 23:28:03 25° SSW 23:30:35 70° W 23:35:01 10° N
ATLAS 2AS CENTAUR R/B 3.8 23:29:35 25° SE 23:31:46 29° ESE 23:38:21 10° NE
H-2A R/B 2.4 23:31:47 27° S 23:34:39 64° W 23:40:03 10° NNW
Spot 2 4.4 23:29:30 10° NNE 23:34:42 82° ESE 23:37:17 30° S
Cosmos 2237 Rocket 2.9 23:29:30 10° NNW 23:34:58 44° ENE 23:37:50 25° ESE
Cosmos 1937 Rocket 3.5 23:34:59 33° S 23:37:11 61° ESE 23:42:19 10° NNE
Cosmos 2082 4.4 23:36:11 31° SE 23:37:33 35° ESE 23:42:40 10° NE
Cosmos 1726 3.2 23:37:17 10° NNW 23:40:49 39° W 23:42:11 28° SW
Iridium 2 3.8 23:42:31 42° SSW 23:43:39 70° W 23:47:30 10° N
Nadezhda 1 Rocket 3.9 23:38:38 10° N 23:44:45 85° E 23:47:39 33° S
ALOS 2 4.4 23:45:44 17° E 23:47:11 20° ENE 23:50:25 10° NNE
SAR-Lupe-2 4.4 23:48:16 36° SW 23:49:03 42° W 23:52:29 10° NNW
Cosmos 2360 Rocket 3.8 23:44:56 10° NW 23:49:24 24° WSW 23:52:34 15° SW
Cosmos 990 Rocket 4.0 23:53:09 42° SSE 23:54:43 62° ESE 23:59:48 10° NNE
